Simultaneous Nadir Overpasses (SNOs) Predictions

Prediction of SNOs between LANDSAT-8 and NOAA-19 Satellite Orbit:

Table of predicted SNOs for the next 14.0 days since TLE Epoch: 4/4/2020
Index Date (LANDSAT-8) Time (LANDSAT-8) Lat,Lon (LANDSAT-8) SZA (LANDSAT-8 ) Date (NOAA-19) Time (NOAA-19) Lat,Lon (NOAA-19) SZA (NOAA-19 ) Distance(km) Time Diff (sec)
1 04/05/2020 02:41:26 -79.60, -16.12 105.78 04/05/2020 02:41:16 -79.62, -16.19 105.77 2.65 10
2 04/07/2020 08:15:08 79.60, 80.46 73.40 04/07/2020 08:14:35 79.63, 80.42 73.42 3.59 33
3 04/07/2020 09:04:35 -79.61,-111.85 106.60 04/07/2020 09:05:34 -79.58,-111.76 106.61 3.83 59
4 04/09/2020 13:48:51 -79.62, 177.13 107.40 04/09/2020 13:47:55 -79.64, 177.11 107.40 2.65 56
5 04/09/2020 14:38:17 79.61, -15.28 72.58 04/09/2020 14:38:54 79.61, -15.29 72.59 0.36 37
6 04/11/2020 19:22:29 79.76, -85.22 72.01 04/11/2020 19:21:23 79.86, -88.67 71.84 68.75 66
7 04/11/2020 20:12:00 -79.63, 81.41 108.20 04/11/2020 20:12:13 -79.60, 81.51 108.21 3.35 13
8 04/14/2020 01:45:42 79.62, 177.95 71.00 04/14/2020 01:45:34 79.63, 177.97 71.01 1.10 8
9 04/16/2020 07:19:25 -79.64, -85.34 109.76 04/16/2020 07:18:52 -79.63, -85.28 109.77 1.71 33




NCC Satellite Simultaneous Nadir Overpasses (SNOs) Prediction Service
